Location: Newark
(44.1906°N, 75.9681°W)
Time: 01:28:34
(UTC+00:00)

Envisat - Pass Details

Date: 26 January 2020
Orbit: 764 x 766 km, 98.1° (Epoch: 25 February)

Event Time Altitude Azimuth Distance (km) Brightness Sun altitude
Rises 00:08:27 0° 209° (SSW) 3,220 6.7 -22.3°
Reaches altitude 10° 00:11:31 10° 228° (SW) 2,300 6.2 -22.8°
Maximum altitude 00:14:51 17° 270° (W) 1,841 5.9 -23.4°
Drops below altitude 10° 00:18:11 10° 311° (NW) 2,311 6.0 -24.0°
Sets 00:21:18 0° 331° (NNW) 3,243 6.6 -24.6°
